Location: Penton Mewsey
(51.2167°N, 1.5167°W)
Time: 18:46:27
(UTC+00:00)

STARLINK-1237 - Pass Details

Date: 30 March 2020
Orbit: 549 x 550 km, 53.0° (Epoch: 25 May)

Event Time Altitude Azimuth Distance (km) Brightness Sun altitude
Rises 21:08:17 0° 263° (W) 2,724 7.8 -22.4°
Reaches altitude 10° 21:10:32 10° 265° (W) 1,832 6.8 -22.6°
Maximum altitude 21:14:42 73° 351° (N) 582 3.7 -23.1°
Enters shadow 21:15:00 69° 30° (NNE) 596 3.7 -23.2°
